Location: Bern�tre
(50.1974°N, 2.0915°E)
Time: 05:52:11
(UTC+00:00)

YAOGAN 1 - Pass Details

Date: 18 September 2020
Orbit: 618 x 620 km, 97.9° (Epoch: 27 October)

Event Time Altitude Azimuth Distance (km) Brightness Sun altitude
Rises 18:22:34 0° 165° (SSE) 2,887 5.8 -4.8°
Reaches altitude 10° 18:24:44 10° 166° (SSE) 1,985 4.9 -5.1°
Maximum altitude 18:29:04 86° 256° (WSW) 630 2.7 -5.8°
Drops below altitude 10° 18:33:26 10° 345° (NNW) 2,001 5.5 -6.5°
Sets 18:35:38 0° 346° (NNW) 2,912 6.4 -6.8°
